STARLINK-33555, 62104

Orbit data source: Space-Track

STARLINK-33555, 62104 is a payload satellite owned by SpaceX/Seattle (US) in LEO that was launched on Mon, 25 Nov 2024 UTC via an FALCON 9 launch vehicle from the Air Force Eastern Test Range (AFETR). Payload-class satellites include a variety of spacecraft equipped with specific instruments for various scientific and technological missions. These include communications satellites like Starlink; space stations such as the ISS; scientific satellites like the Hubble; Earth observation satellites from companies like Planet Labs, Umbra, and HawkEye 360; GPS; miniature CubeSats for education and research; and military/defense satellites.

Loading next visibility...
Identifier
62104, 2024-220S
Orbit
LEO
Country
Flag of USUS
Related business
Manufacturer
SpaceX/Seattle
Mission
Operational Commercial Communications
Bus & Motor
STARLINK V2MO, Unknown motor
Mass
530 kg wet, ~500 kg dry
Launch date (UTC)
2024-11-25 (2 years ago)
Launch vehicle
FALCON 9
Launch site
Air Force Eastern Test Range (AFETR)
Object type
Payload
Rocket body
Debris
Shape & HBR
Box + 2 Pan, 17.7 m
Radar Cross Section
36.964 m², Large (>1 m²)

Expand to show TLE details & history
Last TLE update: 17 hours ago

TLE from 17 hours ago
0 STARLINK-33555
1 62104U 24220S   26171.17668069  .00022610  00000-0  82810-3 0  9996
2 62104  43.0011 346.8885 0001960 271.5577  88.5050 15.27601032 88836
Epoch: 2026-06-20T04:14Z
TLE epoch observation values (Epoch: 2026-06-20T04:14:25.211Z)
Latitude
-0.00003°
Longitude
14.88836°
Altitude
482.727 km
Speed
7.626 km/s
True Right ascension
23h 07m 33s
True Declination
0° 00' 00"
Sunlit
Object was in daylight at epoch
Visualization orbit readout
Latitude
Unknown
Longitude
Unknown
Altitude
Unknown
Speed
Unknown
Apparent Right ascension
Unknown
Apparent Declination
Unknown
Sunlit
N/A
Visualization observer readout
Local Sidereal Time
08:33:41
Azimuth
Unknown
Elevation
Unknown
Doppler factor
Unknown
Orbital elements
Apogee altitude
486.276 km
Perigee altitude
483.586 km
Semi-major axis
6,863.068 km
Eccentricity
0.0002
Inclination
43.0011°
RAAN
346.8885°
Arg. of periapsis
271.5577°
True anomaly
88.52745°
Mean anomaly
88.505°
Eccentric anomaly
88.51623°
Mean motion
3.81738 °/min
Orbital period
94.31 mins
BSTAR
0.0008281
Loading maneuver chart data...
Computing Atmospheric mass density...
Loading historical data...
Loading historical data...
Loading historical data...
Loading historical data...
Loading historical data...
Loading historical data...
Loading historical data...

Documentation

Showing up to 5 results
|